User: anonymous   Login
Location: Unspecified
(0.0000°N, 0.0000°E)
Time: 23:29:57
(UTC+02:00)
Language:

Ariane H10 - Orbit

View from above orbital plane
View from above orbital plane
View from above satellite
View from above satellite

Ground track
Ground track

The orbit data is extracted from the following two-line orbital elements,

1 19122U 88040B   18174.27674169  .00000103  00000-0  15310-2 0  9994
2 19122   7.5952  23.6433 7153383  69.9776 349.7857  2.33509408205611
Epoch (UTC): 23 June 2018 06:38:30
Eccentricity: 0.7153383
inclination: 7.5952°
perigee height: 453 km
apogee height: 34788 km
right ascension of ascending node: 23.6433°
argument of perigee: 69.9776°
revolutions per day: 2.33509408
mean anomaly at epoch: 349.7857°
orbit number at epoch: 20561

The dashed part of the orbit path shows where the satellite is in the earth's shadow,  

DLR